| time (UTC) | temp F | wind direction | speed MPH | gust MPH | rain 1hr in | rain 24hr in | rain mn in | humidity % | barometer mb |
| 20260510223036 | 64 | 295 | 9.0 | 22.0 | 0.00 | 0.00 | 0.00 | 53 | 1019.1 |
| 20260510221536 | 64 | 301 | 8.0 | 25.0 | 0.00 | 0.00 | 0.00 | 55 | 1019.1 |
| 20260510220034 | 64 | 300 | 7.0 | 16.0 | 0.00 | 0.00 | 0.00 | 55 | 1019.1 |
| 20260510214535 | 63 | 315 | 9.0 | 18.0 | 0.00 | 0.00 | 0.00 | 59 | 1019.2 |
| 20260510211536 | 61 | 308 | 8.0 | 18.0 | 0.00 | 0.00 | 0.00 | 60 | 1019.5 |
| 20260510210035 | 61 | 310 | 7.0 | 16.0 | 0.00 | 0.00 | 0.00 | 61 | 1019.3 |
| 20260510204640 | 61 | 307 | 11.0 | 22.0 | 0.00 | 0.00 | 0.00 | 59 | 1018.9 |
| 20260510203150 | 63 | 313 | 9.0 | 18.0 | 0.00 | 0.00 | 0.00 | 58 | 1018.4 |
| 20260510200035 | 65 | 300 | 9.0 | 19.0 | 0.00 | 0.00 | 0.00 | 57 | 1018.2 |
| 20260510194534 | 64 | 308 | 9.0 | 17.0 | 0.00 | 0.00 | 0.00 | 58 | 1018.2 |
| 20260510191535 | 65 | 307 | 8.0 | 20.0 | 0.00 | 0.00 | 0.00 | 58 | 1017.9 |
| 20260510190153 | 65 | 302 | 6.0 | 14.0 | 0.00 | 0.00 | 0.00 | 57 | 1017.8 |
| 20260510184642 | 66 | 295 | 6.0 | 16.0 | 0.00 | 0.00 | 0.00 | 56 | 1017.7 |
| 20260510183032 | 66 | 300 | 5.0 | 12.0 | 0.00 | 0.00 | 0.00 | 57 | 1017.7 |
| 20260510181535 | 65 | 303 | 8.0 | 14.0 | 0.00 | 0.00 | 0.00 | 57 | 1017.6 |
| 20260510180034 | 65 | 308 | 8.0 | 14.0 | 0.00 | 0.00 | 0.00 | 58 | 1017.5 |
| 20260510173035 | 63 | 315 | 3.0 | 6.0 | 0.00 | 0.00 | 0.00 | 60 | 1017.7 |
| 20260510171534 | 63 | 7 | 4.0 | 8.0 | 0.00 | 0.00 | 0.00 | 64 | 1017.6 |
| 20260510170030 | 63 | 331 | 3.0 | 5.0 | 0.00 | 0.00 | 0.00 | 63 | 1017.6 |
| 20260510164531 | 61 | 349 | 1.0 | 5.0 | 0.00 | 0.00 | 0.00 | 68 | 1017.6 |
| 20260510163034 | 60 | 3 | 2.0 | 4.0 | 0.00 | 0.00 | 0.00 | 69 | 1017.5 |
| 20260510160033 | 59 | 72 | 1.0 | 3.0 | 0.00 | 0.00 | 0.00 | 65 | 1017.6 |
| 20260510154531 | 58 | 217 | 0.0 | 2.0 | 0.00 | 0.00 | 0.00 | 67 | 1017.3 |
| 20260510153030 | 57 | 190 | 1.0 | 4.0 | 0.00 | 0.00 | 0.00 | 70 | 1017.2 |
| 20260510151533 | 56 | 131 | 2.0 | 4.0 | 0.00 | 0.00 | 0.00 | 72 | 1017.1 |
| 20260510150033 | 55 | 137 | 1.0 | 4.0 | 0.00 | 0.00 | 0.00 | 75 | 1017.3 |
| 20260510144649 | 54 | 126 | 0.0 | 3.0 | 0.00 | 0.00 | 0.00 | 76 | 1017.0 |
| 20260510143031 | 53 | 145 | 0.0 | 4.0 | 0.00 | 0.00 | 0.00 | 76 | 1016.8 |
| 20260510141533 | 51 | 166 | 3.0 | 5.0 | 0.00 | 0.00 | 0.00 | 76 | 1016.7 |
| 20260510134536 | 48 | 141 | 3.0 | 5.0 | 0.00 | 0.00 | 0.00 | 81 | 1016.8 |
| 20260510133039 | 47 | 166 | 2.0 | 4.0 | 0.00 | 0.00 | 0.00 | 80 | 1016.8 |
| 20260510131612 | 47 | 158 | 1.0 | 3.0 | 0.00 | 0.00 | 0.00 | 79 | 1016.6 |
| 20260510124535 | 45 | 182 | 2.0 | 4.0 | 0.00 | 0.00 | 0.00 | 82 | 1016.5 |
| 20260510123032 | 45 | 154 | 3.0 | 5.0 | 0.00 | 0.00 | 0.00 | 82 | 1016.8 |
| 20260510120035 | 44 | 165 | 3.0 | 6.0 | 0.00 | 0.00 | 0.00 | 82 | 1016.6 |
| 20260510114536 | 45 | 157 | 2.0 | 4.0 | 0.00 | 0.00 | 0.00 | 80 | 1016.8 |
| 20260510113036 | 46 | 157 | 3.0 | 4.0 | 0.00 | 0.00 | 0.00 | 79 | 1016.6 |
| 20260510111533 | 46 | 160 | 3.0 | 4.0 | 0.00 | 0.00 | 0.00 | 79 | 1016.5 |
| 20260510110150 | 46 | 168 | 3.0 | 6.0 | 0.00 | 0.00 | 0.00 | 80 | 1016.4 |
| 20260510104537 | 46 | 155 | 3.0 | 5.0 | 0.00 | 0.00 | 0.00 | 78 | 1016.7 |
| 20260510103108 | 47 | 157 | 3.0 | 5.0 | 0.00 | 0.00 | 0.00 | 77 | 1016.9 |
| 20260510101531 | 47 | 159 | 3.0 | 5.0 | 0.00 | 0.00 | 0.00 | 77 | 1016.7 |
| 20260510100142 | 47 | 151 | 4.0 | 5.0 | 0.00 | 0.00 | 0.00 | 78 | 1016.6 |
| 20260510094536 | 47 | 157 | 3.0 | 5.0 | 0.00 | 0.00 | 0.00 | 76 | 1016.6 |
| 20260510093035 | 48 | 157 | 3.0 | 4.0 | 0.00 | 0.00 | 0.00 | 76 | 1016.6 |
| 20260510091535 | 48 | 157 | 3.0 | 4.0 | 0.00 | 0.00 | 0.00 | 74 | 1016.9 |
| 20260510090151 | 49 | 157 | 3.0 | 4.0 | 0.00 | 0.00 | 0.00 | 74 | 1017.0 |
| 20260510084532 | 49 | 157 | 3.0 | 4.0 | 0.00 | 0.00 | 0.00 | 73 | 1017.1 |
| 20260510083035 | 50 | 156 | 3.0 | 6.0 | 0.00 | 0.00 | 0.00 | 74 | 1017.2 |
| 20260510081530 | 49 | 154 | 4.0 | 6.0 | 0.00 | 0.00 | 0.00 | 77 | 1017.3 |
| 20260510080034 | 49 | 156 | 4.0 | 5.0 | 0.00 | 0.00 | 0.00 | 78 | 1017.4 |
| 20260510070030 | 51 | 157 | 3.0 | 4.0 | 0.00 | 0.00 | 0.00 | 75 | 1017.5 |
| 20260510061534 | 53 | 141 | 3.0 | 6.0 | 0.00 | 0.00 | 0.00 | 71 | 1017.4 |
| 20260510060032 | 53 | 160 | 2.0 | 4.0 | 0.00 | 0.00 | 0.00 | 73 | 1017.4 |
| 20260510054534 | 53 | 157 | 3.0 | 5.0 | 0.00 | 0.00 | 0.00 | 73 | 1017.3 |
| 20260510053036 | 54 | 162 | 3.0 | 4.0 | 0.00 | 0.00 | 0.00 | 71 | 1017.4 |
| 20260510051534 | 54 | 161 | 3.0 | 4.0 | 0.00 | 0.00 | 0.00 | 71 | 1017.2 |
| 20260510050111 | 55 | 157 | 3.0 | 5.0 | 0.00 | 0.00 | 0.00 | 71 | 1017.1 |
| 20260510044535 | 57 | 140 | 4.0 | 5.0 | 0.00 | 0.00 | 0.00 | 67 | 1017.1 |
| 20260510043034 | 58 | 157 | 3.0 | 4.0 | 0.00 | 0.00 | 0.00 | 68 | 1017.1 |
| 20260510041535 | 59 | 142 | 4.0 | 5.0 | 0.00 | 0.00 | 0.00 | 67 | 1017.0 |
| 20260510040036 | 61 | 137 | 3.0 | 6.0 | 0.00 | 0.00 | 0.00 | 63 | 1016.9 |
| 20260510034533 | 63 | 157 | 3.0 | 5.0 | 0.00 | 0.00 | 0.00 | 62 | 1016.7 |
| 20260510033143 | 64 | 162 | 3.0 | 4.0 | 0.00 | 0.00 | 0.00 | 62 | 1016.6 |
| 20260510031532 | 66 | 168 | 2.0 | 4.0 | 0.00 | 0.00 | 0.00 | 57 | 1016.6 |
| 20260510030141 | 68 | 291 | 0.0 | 1.0 | 0.00 | 0.00 | 0.00 | 53 | 1016.6 |
| 20260510024537 | 69 | 292 | 0.0 | 0.0 | 0.00 | 0.00 | 0.00 | 48 | 1016.6 |
| 20260510023033 | 70 | 292 | 0.0 | 0.0 | 0.00 | 0.00 | 0.00 | 42 | 1016.7 |
| 20260510021535 | 71 | 292 | 0.0 | 0.0 | 0.00 | 0.00 | 0.00 | 42 | 1016.6 |
| 20260510020145 | 72 | 292 | 0.0 | 0.0 | 0.00 | 0.00 | 0.00 | 38 | 1016.6 |
| 20260510014645 | 73 | 292 | 1.0 | 2.0 | 0.00 | 0.00 | 0.00 | 34 | 1016.9 |
| 20260510013143 | 73 | 292 | 0.0 | 2.0 | 0.00 | 0.00 | 0.00 | 34 | 1017.0 |
| 20260510011531 | 73 | 293 | 1.0 | 6.0 | 0.00 | 0.00 | 0.00 | 34 | 1017.1 |
| 20260510010033 | 73 | 301 | 3.0 | 5.0 | 0.00 | 0.00 | 0.00 | 34 | 1017.1 |
| 20260510004535 | 74 | 298 | 3.0 | 6.0 | 0.00 | 0.00 | 0.00 | 34 | 1017.1 |
| 20260510003034 | 74 | 311 | 3.0 | 7.0 | 0.00 | 0.00 | 0.00 | 36 | 1017.2 |
| 20260510001535 | 74 | 310 | 4.0 | 8.0 | 0.00 | 0.00 | 0.00 | 38 | 1017.2 |
| 20260510000036 | 74 | 317 | 4.0 | 8.0 | 0.00 | 0.00 | 0.00 | 38 | 1017.3 |
| 20260509234534 | 74 | 319 | 5.0 | 9.0 | 0.00 | 0.00 | 0.00 | 39 | 1017.5 |
| 20260509233035 | 74 | 337 | 5.0 | 9.0 | 0.00 | 0.00 | 0.00 | 39 | 1017.6 |
| 20260509231536 | 73 | 300 | 4.0 | 10.0 | 0.00 | 0.00 | 0.00 | 41 | 1018.1 |
| 20260509224531 | 73 | 329 | 4.0 | 9.0 | 0.00 | 0.00 | 0.00 | 40 | 1018.4 |